This demonstration page uses our WeatherBlox Daily Observations layout. Learn more.

Left ArrowRight Arrow

53.62937, 11.41316

Hourly Observations for October 26, 2015

Temp ( °F °C ) Dew Point ( °F °C ) Humidity (%) Winds ( mph kmh ) Pressure ( in mb ) Visibility ( mi km ) Precip ( " mm )
5:20 am 05:20 Mostly Clear 30 -1 30 -1 100 100 ENE 5 7 30.30 1026 5 8 N/A
5:50 am 05:50 Mostly Clear 30 -1 30 -1 100 100 ENE 5 7 30.30 1026 6 9 N/A
6:20 am 06:20 Mostly Clear with Fog 30 -1 30 -1 100 100 ENE 3 6 30.30 1026 30 48 N/A
6:50 am 06:50 Mostly Clear with Fog 30 -1 30 -1 100 100 ENE 5 7 30.30 1026 30 48 N/A
7:20 am 07:20 Partly Cloudy with Patchy Fog 30 -1 30 -1 100 100 ENE 6 9 30.30 1026 30 48 N/A
7:50 am 07:50 Mostly Sunny 30 -1 30 -1 100 100 ENE 5 7 30.30 1026 7 11 N/A
8:20 am 08:20 Mostly Sunny 34 1 34 1 100 100 ENE 6 9 30.33 1027 7 11 N/A
8:50 am 08:50 Mostly Sunny 36 2 36 2 100 100 ENE 6 9 30.33 1027 7 11 N/A
9:20 am 09:20 Mostly Sunny 43 6 43 6 100 100 ENE 5 7 30.33 1027 7 11 N/A
9:50 am 09:50 Mostly Sunny 45 7 45 7 100 100 E 5 7 30.30 1026 7 11 N/A
10:20 am 10:20 Mostly Sunny 48 9 43 6 82 82 ESE 6 9 30.30 1026 7 11 N/A
10:50 am 10:50 Mostly Sunny 50 10 45 7 82 82 E 6 9 30.30 1026 7 11 N/A
11:20 am 11:20 Mostly Sunny 52 11 45 7 77 77 E 6 9 30.30 1026 7 11 N/A
11:50 am 11:50 Mostly Sunny 52 11 43 6 72 72 ESE 7 11 30.30 1026 7 11 N/A
12:20 pm 12:20 Mostly Sunny 54 12 43 6 67 67 ESE 8 13 30.30 1026 7 11 N/A
12:50 pm 12:50 Mostly Sunny 54 12 43 6 67 67 SE 10 17 30.30 1026 7 11 N/A
1:20 pm 13:20 Mostly Sunny 54 12 41 5 63 63 SE 10 17 30.27 1025 7 11 N/A
1:50 pm 13:50 Mostly Sunny 54 12 41 5 63 63 ESE 9 15 30.27 1025 7 11 N/A
2:20 pm 14:20 Mostly Sunny 54 12 41 5 63 63 ESE 9 15 30.27 1025 7 11 N/A
2:50 pm 14:50 Mostly Sunny 55 13 43 6 63 63 ESE 9 15 30.24 1024 7 11 N/A
3:20 pm 15:20 Mostly Sunny 54 12 43 6 67 67 E 7 11 30.27 1025 7 11 N/A
3:50 pm 15:50 Mostly Sunny 54 12 41 5 63 63 ESE 8 13 30.24 1024 7 11 N/A
4:20 pm 16:20 Mostly Sunny 52 11 41 5 67 67 ESE 7 11 30.24 1024 7 11 N/A
4:50 pm 16:50 Mostly Sunny 50 10 41 5 71 71 E 6 9 30.24 1024 7 11 N/A
5:20 pm 17:20 Mostly Clear 46 8 43 6 87 87 E 5 7 30.24 1024 7 11 N/A
5:50 pm 17:50 Mostly Clear 45 7 43 6 93 93 ESE 6 9 30.24 1024 7 11 N/A

Powered by AerisWeather